Simultaneous Nadir Overpasses (SNOs) Predictions

Prediction of SNOs between GOES-16 and NOAA-19 Satellite Orbit:

Table of predicted SNOs for the next 14.0 days since TLE Epoch: 7/9/2022
Index Date Time (GOES-16) GOES-16 Lat,Lon NOAA-19 Lat,Lon Distance(km) Time Diff (sec)
1 07/10/2022 13:05:10 0.02, -75.21 0.84, -78.77 405.36 80
2 07/11/2022 12:53:18 0.03, -75.22 0.19, -75.87 75.07 80
3 07/12/2022 12:41:28 0.02, -75.22 -0.52, -72.99 255.22 80
4 07/15/2022 01:04:50 -0.01, -75.22 -0.65, -77.89 306.24 80
5 07/16/2022 00:50:20 -0.00, -75.22 0.05, -75.01 24.45 80
6 07/17/2022 00:38:29 0.01, -75.23 0.70, -72.12 355.37 80
7 07/19/2022 13:01:33 -0.02, -75.29 0.39, -76.96 191.35 80
8 07/20/2022 12:47:03 -0.02, -75.30 -0.32, -74.08 140.64 80
9 07/21/2022 12:35:11 0.00, -75.32 -0.98, -71.18 473.20 80
10 07/23/2022 01:10:26 -0.00, -75.34 -0.85, -78.98 415.83 80
